Regional Weather Roundup
Issued by NWS

Home | Current Version | Previous Version | Text Only | Print | Product List | Glossary Off
Versions: 1 2 3 4 5 6 7 8 9 10 11 12 13 14 15 16 17 18 19 20 21 22 23 24 25 26 27

000
ASUS45 KTFX 310410
RWRMT
MONTANA REGIONAL WEATHER ROUNDUP
NATIONAL WEATHER SERVICE GREAT FALLS MT
1000 PM MDT MON MAY 30 2016

NOTE: "FAIR" INDICATES FEW OR NO CLOUDS BELOW 12000 FEET WITH NO
SIGNIFICANT WEATHER AND/OR OBSTRUCTIONS TO VISIBILITY.

MTZ001>007-043-310500-
WEST OF THE DIVIDE

CITY           SKY/WX    TMP DP  RH WIND       PRES   REMARKS
KALISPELL      PTCLDY    52  38  58 NW3       30.14R
MISSOULA       CLEAR     57  33  40 N8        30.15R
BUTTE          PTCLDY    52  24  33 N7        30.19R
MULLAN PASS    CLEAR     43  28  55 VRB5      30.24S
ANACONDA         N/A     50  27  40 NW6       30.18R
DEER LODGE       N/A     48  32  53 W6        30.19R
EUREKA           N/A     54  43  66 CALM        N/A
HAMILTON         N/A     61  30  31 N7        30.15R
LIBBY            N/A     54  37  54 SE3       30.16R
$$

MTZ008-052>055-310500-
SOUTHWEST MONTANA

CITY           SKY/WX    TMP DP  RH WIND       PRES   REMARKS
BOZEMAN        CLEAR     47  33  58 NW6       30.15R
DILLON         CLEAR     50  27  40 E9        30.15R
W YELLOWSTONE  CLEAR     46  23  39 N5        30.19R
ENNIS          MOCLDY    50  25  37 NE13      30.20R
$$

MTZ009-010-012-014-046-048-049-054-310500-
EAST SLOPES AND CENTRAL MONTANA

CITY           SKY/WX    TMP DP  RH WIND       PRES   REMARKS
CUT BANK       CLEAR     45  39  79 N10       30.19R
GREAT FALLS    CLOUDY    50  39  66 CALM      30.20R
MALMSTROM AFB  CLOUDY    50  40  68 NW5       30.20R
HELENA         CLEAR     54  35  48 N7        30.17R
CHOTEAU          N/A     48  36  61 NW12G20   30.21R
$$

MTZ011-013-016-021-045-047-050-051-310500-
NORTH CENTRAL MONTANA

CITY           SKY/WX    TMP DP  RH WIND       PRES   REMARKS
HAVRE          CLOUDY    49  43  80 NW18G29   30.10R
LEWISTOWN      CLOUDY    47  38  71 NW10      30.16R
N BAR RANCH      N/A     45  37  76 NW23G33   30.10S
CHINOOK          N/A     50  45  81 W15G24    30.06R
$$

MTZ017>020-022>027-061-062-310500-
NORTHEAST MONTANA

CITY           SKY/WX    TMP DP  RH WIND       PRES   REMARKS
GLASGOW        CLOUDY    50  42  74 W12       29.95S
JORDAN           N/A     50  40  68 NW14      30.01S
SIDNEY         CLOUDY    54  50  87 W7        29.94S
WOLF POINT     MOCLDY    53  44  71 W14       29.94S
POPLAR           N/A     52  46  82 W12       29.93S
$$

MTZ028>42-056>058-310500-
SOUTHCENTRAL AND SOUTHEAST MONTANA

CITY           SKY/WX    TMP DP  RH WIND       PRES   REMARKS
BAKER          CLOUDY    48  46  93 W8        30.00R
BILLINGS       PTCLDY    52  36  54 E6        30.13R
LIVINGSTON     CLEAR     49  34  56 W8        30.15R
MILES CITY     CLEAR     52  37  56 W14       30.04R
FORSYTH          N/A     54  37  54 W9        30.07R
$$

REGIONAL REPORTS...DAKOTAS

CITY           SKY/WX    TMP DP  RH WIND       PRES   REMARKS
WILLISTON      RAIN      53  51  93 W9        29.90F FOG
MINOT          LGT RAIN  58  55  90 NW6       29.87R
DICKINSON      PTCLDY    51  48  89 W20       29.91S
BEACH            N/A     46  46 100 W9        30.00R
CROSBY         LGT RAIN  52  52 100 N9        29.91S
WATFORD CITY   CLOUDY    54  54 100 W5        29.91S
BISMARCK       LGT RAIN  56  55  97 W12       29.84R
GRAND FORKS    RAIN      60  57  89 E8        29.85R
FARGO          CLOUDY    65  57  75 N20G25    29.73F
BUFFALO SD       N/A     49  43  80 NW12      29.94S
RAPID CITY     CLEAR     52  41  66 NW18      29.99S
$$

REGIONAL REPORTS...WYOMING/IDAHO/WASHINGTON

CITY           SKY/WX    TMP DP  RH WIND       PRES   REMARKS
GILLETTE       MOCLDY    45  43  93 NW6       30.12R
SHERIDAN       CLEAR     46  41  82 NW7       30.14R
BUFFALO WY     CLOUDY    48  42  80 N3        30.15R
CODY           CLOUDY    50  36  57 NW6       30.15R
YELLOWSTONE LA   N/A     43  19  38 CALM      30.25R
IDAHO FALLS    PTCLDY    59  32  36 S9        30.08R
SALMON         CLEAR     52  30  43 N6        30.11R
BOISE          CLEAR     67  30  25 S3        30.07R
SPOKANE        PTCLDY    64  29  26 S5        30.15S
$$

REGIONAL REPORTS...ALBERTA

CITY           SKY/WX    TMP DP  RH WIND       PRES   REMARKS
EDMONTON       MOCLDY    50  43  76 NW6       30.21R
CALGARY        PTCLDY    48  39  71 NE7       30.24R
LETHBRIDGE     PTCLDY    50  43  76 N5        30.21R
MEDICINE HAT   CLOUDY    50  46  87 NW17G23   30.11R
WATERTON GATE    N/A     43  41  93 NE3         N/A
CARDSTON         N/A     48  41  76 W6          N/A
MILK RIVER       N/A     43  39  87 N8          N/A
ONEFOUR          N/A     46  43  87 NW21        N/A
$$

REGIONAL REPORTS...SASKATCHEWAN

CITY           SKY/WX    TMP DP  RH WIND       PRES   REMARKS
SWIFT CURRENT  LGT RAIN  50  50 100 N9        29.95R
REGINA         LGT RAIN  54  52  94 E9        29.94R
SASKATOON      PTCLDY    52  46  82 NE6       30.03R
CYPRESS HILLS    N/A     43  39  87 N12G24      N/A
VAL MARIE        N/A     50  46  87 NW5         N/A
ROCKGLEN         N/A     50  50 100 N8          N/A
ASSINIBOIA       N/A     50  48  93 NW15        N/A
$$




USA.gov is the U.S. government's official web portal to all federal, state and local government web resources and services.